Location: Castera
(43.4000°N, 0.0333°W)
Time: 23:34:24
(UTC+00:00)

Daily predictions for brighter satellites

Satellite Brightness Start Highest point End
(mag) Time Altitude Azimuth Time Altitude Azimuth Time Altitude Azimuth
Cosmos 1000 Rocket 4.5 17:21:18 10° N 17:27:30 70° E 17:33:41 10° SSE
BREEZE-M R/B 3.2 17:24:42 10° WNW 17:28:28 40° N 17:32:08 10° ENE
NOSS 2-3 (D) 3.8 17:25:10 10° SSW 17:28:57 46° ESE 17:33:14 10° NE
Meteor 1-21 Rocket 4.4 17:23:09 10° N 17:29:05 87° E 17:35:02 10° S
YAOGAN 1 4.3 17:27:44 10° E 17:29:53 14° ENE 17:32:03 10° NNE
Cosmos 1953 2.5 17:25:54 10° S 17:29:58 83° WNW 17:34:02 10° N
Cosmos 2278 4.4 17:26:18 10° SW 17:31:54 60° WNW 17:37:34 10° NNE
NOSS 3-1 (C) 3.2 17:27:23 10° SSW 17:32:28 62° ESE 17:38:23 10° NE
ATLAS 5 CENTAUR R/B 3.0 17:29:50 10° WSW 17:33:21 32° NW 17:37:18 10° NNE
Cosmos 44 4.4 17:30:06 10° S 17:34:48 31° ESE 17:39:28 10° NE
Lacrosse 4 Rocket 2.1 17:33:48 10° NNW 17:37:48 35° NE 17:41:49 10° ESE
CORIOLIS 4.3 17:34:01 10° SSE 17:39:22 84° WSW 17:44:45 10° NNW
Cosmos 1300 2.9 17:37:28 10° SSE 17:41:07 46° E 17:44:47 10° NNE
NOSS 2-3 (C) 3.5 17:37:29 10° SSW 17:41:26 66° ESE 17:45:56 10° NE
Cosmos 1544 Rocket 3.8 17:37:55 10° SSE 17:42:13 51° E 17:46:33 10° NNE
NOSS 8 (H) 4.3 17:39:41 10° SSW 17:43:10 61° ESE 17:46:07 10° NE
CZ-2C R/B 4.4 17:37:34 10° S 17:43:14 52° W 17:48:47 10° NNW
SL-16 R/B 2.2 17:37:56 10° S 17:43:32 65° ESE 17:49:09 10° NNE
NOSS 2 (A) 4.3 17:41:08 10° NNW 17:43:48 47° NE 17:46:09 10° SE
Cosmos 2251 Rocket 4.3 17:39:49 10° N 17:44:25 30° ENE 17:48:58 10° ESE
Cosmos 1821 Rocket 4.4 17:40:39 10° SSW 17:47:01 72° W 17:53:22 10° N
SL-19 R/B 4.2 17:48:03 10° NNE 17:53:43 74° ESE 17:59:16 10° S
Cosmos 2322 Rocket 2.2 17:49:30 10° S 17:55:00 61° ESE 18:00:33 10° NNE
Cosmos 1934 Rocket 3.9 17:50:03 10° S 17:56:07 74° E 18:02:10 10° NNE
deb Chang Zheng 4 3.4 17:54:09 10° SSE 17:58:21 84° ENE 18:02:36 10° NNW
CZ-4C R/B 3.4 17:57:09 10° NNE 18:00:15 36° E 18:03:15 10° SSE
Cosmos 2219 Rocket 3.6 17:57:31 10° SE 18:00:41 16° E 18:01:22 15° E
Cosmos 304 Rocket 3.7 17:56:37 10° S 18:01:19 64° ESE 18:06:06 10° NNE
Okean O Rocket 1.6 17:57:15 10° SSE 18:01:31 60° ENE 18:05:50 10° N
Iridium 4 Rocket 3.3 17:57:47 10° N 18:02:32 72° E 18:07:44 10° S
Cosmos 614 Rocket 4.2 17:59:01 10° N 18:03:53 44° ENE 18:08:44 10° SE
Cosmos 2360 Rocket 2.5 17:58:43 10° S 18:03:59 43° ESE 18:09:18 10° NE
Meteor 1-4 Rocket 2.6 18:02:02 10° S 18:05:23 49° E 18:08:44 10° NNE
CZ-4 R/B 2.3 18:02:18 10° SE 18:05:44 28° ENE 18:09:16 10° N
Cosmos 1844 4.3 18:01:24 10° N 18:06:42 36° NE 18:11:17 13° ESE
FALCON 9 DEB 3.8 18:04:43 10° SSW 18:07:19 28° SE 18:08:09 24° ESE
ARGOS 3.2 18:03:03 10° SSE 18:08:20 59° ENE 18:13:40 10° N
Cosmos 1602 Rocket 3.7 18:04:46 10° N 18:08:58 46° ENE 18:13:06 10° SSE
Cosmos 2333 Rocket 3.1 18:10:05 10° SSE 18:14:39 26° ESE 18:17:13 19° ENE
COSMO-SKYMED 1 2.5 18:11:11 10° NNE 18:15:33 89° ESE 18:19:53 10° SSW
CZ-2C R/B 3.7 18:15:20 10° SW 18:16:34 11° SSW 18:17:46 10° S
CZ-4B R/B 3.5 18:14:04 10° S 18:19:43 75° WSW 18:25:25 10° NNW
Okean 1-7 Rocket 4.2 18:16:17 10° NNW 18:20:39 60° W 18:25:03 10° S
SL-8 R/B 4.3 18:18:11 10° WNW 18:22:48 46° N 18:25:25 23° ENE
Cosmos 2263 Rocket 4.0 18:18:03 10° NW 18:22:58 33° WSW 18:27:52 10° SSW
Spot 2 4.0 18:19:27 10° SSE 18:23:32 57° ENE 18:27:51 10° N
Cosmos 839 Rocket 4.2 18:16:29 10° NNW 18:24:01 86° NE 18:30:19 10° SSE
In-Cosmos 22 Rocket 4.1 18:18:58 10° N 18:24:12 58° ENE 18:29:27 10° SSE
Cosmos 332 Rocket 4.0 18:20:50 10° SSW 18:25:43 75° WNW 18:30:36 10° NNE
Feng Yun 1-1 Rocket 4.2 18:20:49 10° SSE 18:26:19 66° ENE 18:32:02 10° N
Okean-O 3.5 18:26:34 28° ENE 18:26:48 28° ENE 18:30:34 10° N
Cosmos 2123 Rocket 4.5 18:22:08 10° NNW 18:28:24 65° W 18:34:35 10° S
CZ-2C R/B 2.7 18:24:20 10° NNE 18:29:56 86° WNW 18:35:25 10° SSW
USA 215 4.1 18:24:06 10° NE 18:30:15 45° NNW 18:36:22 10° W
Cosmos 1825 Rocket 4.1 18:27:15 10° N 18:31:11 33° ENE 18:31:16 33° ENE
H-2A R/B 2.4 18:27:26 10° SSE 18:31:40 66° ENE 18:35:46 10° N
FALCON 9 DEB 2.6 18:31:26 10° SW 18:34:21 64° SE 18:34:22 64° SE
Cosmos 2228 3.2 18:31:11 10° SSE 18:35:23 47° E 18:39:37 10° NNE
Cosmos 1892 2.5 18:32:06 10° N 18:35:50 66° E 18:39:33 10° SSE
Cosmos 2322 4.2 18:31:24 10° SSE 18:36:31 35° ESE 18:38:00 30° ENE
USA 229 DEB 3.6 18:30:24 10° SW 18:36:46 87° NW 18:43:36 10° NE
USA 229 3.6 18:30:31 10° SW 18:36:52 88° WNW 18:43:41 10° NE
Cosmos 1758 Rocket 3.4 18:34:21 10° N 18:38:39 64° E 18:42:58 10° SSE
CSL-04 Rocket 4.3 18:39:01 32° E 18:40:12 35° ENE 18:45:12 10° N
Cosmos 2344 4.3 18:31:10 10° NW 18:40:27 78° NE 18:53:33 10° SE
Cosmos 1408 2.3 18:38:54 10° N 18:42:29 71° E 18:43:38 40° SSE
Cosmos 1626 Rocket 4.5 18:39:08 10° NNW 18:43:18 49° W 18:47:27 10° SSW
Cosmos 1459 Rocket 4.3 18:40:22 10° SSE 18:46:05 41° E 18:51:44 10° NNE
FALCON 9 DEB 3.8 18:45:35 10° SW 18:47:35 36° SSW 18:47:35 36° SSW
SL-08 RB Rocket 3.7 18:44:28 10° S 18:49:02 82° WSW 18:53:41 10° NNW
H-2A R/B 3.6 18:44:58 10° SSW 18:49:59 38° W 18:55:04 10° NNW
X-37B 2.0 18:47:10 10° W 18:50:28 36° SSW 18:51:09 33° S
HJ-1C 4.5 18:52:28 33° N 18:52:28 33° N 18:54:25 10° N
Cosmos 2100 Rocket 4.1 18:45:50 10° SSE 18:51:52 50° E 18:57:59 10° NNE
Meteor 2-10 Rocket 4.0 18:46:25 10° SSW 18:51:56 67° WNW 18:57:15 10° N
Cosmos 1844 Rocket 2.6 18:49:43 10° NNW 18:55:20 86° WSW 18:59:39 17° SSE
NOSS 3-1 (A) 3.7 18:54:10 10° SW 18:59:23 58° NW 19:04:32 15° NNE
Tiangong 2.4 18:57:49 10° W 19:00:17 35° SW 19:00:17 35° SW
Cosmos 2173 Rocket 4.0 18:56:19 10° SSE 19:02:21 56° E 19:08:29 10° NNE
USA 267 4.0 18:57:42 10° SSE 19:03:59 49° SW 19:10:19 10° WNW
DMSP B5D2-2 3.9 18:58:53 10° NNE 19:04:10 85° ESE 19:09:23 10° SSW
YAOGAN 1 2.9 19:01:10 10° S 19:05:27 64° W 19:09:46 10° NNW
BREEZE-M DEB (TANK) 3.3 19:02:25 10° WNW 19:06:15 51° NW 19:06:15 51° NW
Milstar 3 Cent rocket 4.4 19:02:19 10° SSW 19:07:49 25° SSE 19:09:20 24° SE
H-2A R/B 1.8 19:07:49 80° NNE 19:08:02 90° WNW 19:12:16 10° SSW
Cosmos 1455 3.4 19:04:39 10° S 19:06:47 32° SSW 19:06:47 32° SSW
CENTAUR R/B 4.3 19:05:13 10° NNW 19:11:22 24° NNE 19:12:59 23° NE
Orbus 7S? 3.6 19:05:12 10° NW 19:12:42 87° NE 19:12:53 82° ESE
Lacrosse 4 Rocket 3.6 19:12:43 10° NW 19:16:18 25° WSW 19:19:56 10° SSW
Cosmos 1606 Rocket 3.6 19:13:01 10° S 19:17:29 79° W 19:17:35 79° WNW
Cosmos 1825 4.0 19:14:49 10° NNW 19:16:21 23° NNW 19:16:21 23° NNW
COSMOS 2428 3.5 19:13:31 10° S 19:16:52 35° SSE 19:16:52 35° SSE
Cosmos 1140 Rocket 3.3 19:15:53 10° NNW 19:21:07 86° ENE 19:21:15 84° ESE
Cosmos 2278 Rocket 3.7 19:17:37 10° N 19:20:29 23° NNE 19:20:29 23° NNE
Cosmos 407 Rocket 3.4 19:17:50 10° NNW 19:23:12 87° WSW 19:23:45 73° S
Cosmos 2333 4.3 19:19:40 10° SSW 19:25:17 76° WNW 19:27:52 34° NNE
SL-16 R/B 4.4 19:23:45 10° W 19:28:07 22° NW 19:32:31 10° N
Cosmos 2322 Rocket 4.3 19:35:04 10° WSW 19:39:29 23° NW 19:43:56 10° N
CZ-4 R/B 3.6 19:37:21 10° SSW 19:40:41 25° W 19:44:05 10° NW
Cosmos 2219 Rocket 2.4 19:38:20 10° SSW 19:43:11 65° WSW 19:43:11 65° WSW
Cosmos 2360 Rocket 3.8 19:43:08 10° WSW 19:48:07 31° NW 19:53:08 10° N
Cosmos 2333 Rocket 3.0 19:53:07 10° SW 19:58:35 49° WNW 19:59:20 46° NW
CENTAUR R/B 4.2 20:55:37 10° NNW 21:00:09 37° NNW 21:00:09 37° NNW
